TimeEDT,TemperatureF,Dew PointF,Humidity,Sea Level PressureIn,VisibilityMPH,Wind Direction,Wind SpeedMPH,Gust SpeedMPH,PrecipitationIn,Events,Conditions,WindDirDegrees,DateUTC
12:53 AM,78.1,72.0,81,29.95,10.0,SSE,12.7,-,N/A,,Mostly Cloudy,150,2014-04-19 04:53:00
1:53 AM,78.1,73.0,84,29.94,10.0,SSE,10.4,-,N/A,,Mostly Cloudy,160,2014-04-19 05:53:00
2:53 AM,78.1,72.0,81,29.92,10.0,South,9.2,-,N/A,,Overcast,180,2014-04-19 06:53:00
3:53 AM,75.9,68.0,76,29.90,10.0,SSE,6.9,-,N/A,,Mostly Cloudy,150,2014-04-19 07:53:00
4:53 AM,77.0,71.1,82,29.90,10.0,SSW,6.9,-,N/A,,Mostly Cloudy,200,2014-04-19 08:53:00
5:33 AM,77.0,72.0,84,29.90,10.0,SW,4.6,-,0.00,Rain-Thunderstorm,Light Thunderstorms and Rain,220,2014-04-19 09:33:00
5:53 AM,75.9,72.0,87,29.91,10.0,SW,5.8,-,0.01,Rain-Thunderstorm,Light Thunderstorms and Rain,220,2014-04-19 09:53:00
6:53 AM,75.9,73.0,91,29.92,10.0,West,6.9,-,0.09,Rain-Thunderstorm,Thunderstorms and Rain,260,2014-04-19 10:53:00
7:53 AM,75.0,73.0,94,29.94,7.0,SW,10.4,-,0.15,Rain-Thunderstorm,Light Thunderstorms and Rain,230,2014-04-19 11:53:00
8:20 AM,75.0,72.0,90,29.95,7.0,SSW,31.1,-,0.00,,Mostly Cloudy,200,2014-04-19 12:20:00
8:53 AM,73.9,69.1,85,29.95,7.0,SW,31.1,-,0.00,,Mostly Cloudy,220,2014-04-19 12:53:00
9:53 AM,75.0,70.0,84,29.95,8.0,SW,9.2,-,N/A,,Mostly Cloudy,230,2014-04-19 13:53:00
10:11 AM,75.9,70.0,82,29.95,8.0,SW,8.1,-,N/A,,Mostly Cloudy,220,2014-04-19 14:11:00
10:44 AM,77.0,69.1,76,29.95,8.0,WSW,12.7,-,N/A,,Mostly Cloudy,250,2014-04-19 14:44:00
10:53 AM,78.1,70.0,76,29.95,10.0,WSW,11.5,-,N/A,,Mostly Cloudy,240,2014-04-19 14:53:00
11:53 AM,81.0,69.1,67,29.93,10.0,SW,5.8,-,N/A,,Scattered Clouds,230,2014-04-19 15:53:00
12:53 PM,84.0,69.1,61,29.91,10.0,SW,12.7,-,N/A,,Mostly Cloudy,230,2014-04-19 16:53:00
1:53 PM,86.0,69.1,57,29.89,10.0,West,13.8,-,N/A,,Mostly Cloudy,260,2014-04-19 17:53:00
2:53 PM,84.9,68.0,57,29.88,10.0,WSW,13.8,23.0,N/A,,Mostly Cloudy,250,2014-04-19 18:53:00
3:53 PM,87.1,68.0,53,29.87,10.0,West,18.4,24.2,N/A,,Mostly Cloudy,260,2014-04-19 19:53:00
4:53 PM,82.9,66.9,58,29.87,10.0,WNW,18.4,28.8,N/A,,Mostly Cloudy,300,2014-04-19 20:53:00
5:53 PM,81.0,64.9,58,29.88,10.0,West,19.6,-,N/A,,Scattered Clouds,270,2014-04-19 21:53:00
6:53 PM,79.0,63.0,58,29.89,10.0,West,20.7,-,N/A,,Scattered Clouds,270,2014-04-19 22:53:00
7:53 PM,75.0,60.1,60,29.91,10.0,West,17.3,21.9,N/A,,Partly Cloudy,270,2014-04-19 23:53:00
8:53 PM,73.0,59.0,61,29.93,10.0,West,16.1,-,N/A,,Partly Cloudy,260,2014-04-20 00:53:00
9:53 PM,71.1,59.0,66,29.96,10.0,West,13.8,-,N/A,,Scattered Clouds,260,2014-04-20 01:53:00
10:53 PM,69.1,59.0,70,29.97,10.0,West,9.2,-,N/A,,Mostly Cloudy,260,2014-04-20 02:53:00
11:53 PM,66.9,60.1,79,29.97,10.0,West,9.2,-,N/A,,Partly Cloudy,260,2014-04-20 03:53:00